Location: Unspecified
(0.0000°N, 0.0000°E)
Time: 19:12:38
(UTC+00:00)

Secor 1 Rocket - Pass Details

Date: 18 March 2026
Orbit: 900 x 917 km, 69.9° (Epoch: 18 April)

Event Time Altitude Azimuth Distance (km) Brightness Sun altitude
Rises 19:39:55 0° 178° (S) 3,550 7.9 -23.0°
Reaches altitude 10° 19:42:43 10° 168° (SSE) 2,607 7.1 -23.7°
Enters shadow 19:44:19 17° 157° (SSE) 2,128 6.6 -24.1°
